Merry Christmas and Happy New Year!

 

Sretan Božić i Nova godina!

 

METAR

METAR LDZA 081900Z 03005KT CAVOK 12/M04 Q1025 NOSIG =
METAR LDSP 081900Z AUTO 29009KT 270V330 CAVOK 15/M05 Q1023=
METAR LDDU 081900Z 30004KT 280V020 CAVOK 12/03 Q1022 BECMG 02015KT =
METAR LDZD 081900Z 00000KT CAVOK 08/00 Q1024 NOSIG =
METAR LDPL 081900Z 02006KT CAVOK 13/M08 Q1024=
METAR LDOS 081900Z 08004KT CAVOK 12/M03 Q1025=

TAF

TAF LDZA 081725Z 0818/0918 07006KT CAVOK
                 TX21/0914Z TN01/0905Z=
TAF LDSP 081725Z 0818/0918 32006KT CAVOK
                 TX22/0914Z TN10/0905Z
           BECMG 0909/0911 23012KT
           BECMG 0914/0916 34008KT=
TAF LDDU 081725Z 0818/0918 29008KT CAVOK
                 TX18/0913Z TN11/0903Z
           BECMG 0818/0820 02015KT
           BECMG 0910/0912 29012KT
           BECMG 0916/0918 30005KT=
TAF LDZD 081725Z 0818/0918 VRB02KT CAVOK
                 TX21/0913Z TN05/0904Z
           BECMG 0909/0911 28015KT=
TAF LDPL 081725Z 0818/0918 32005KT CAVOK
                 TX21/0914Z TN06/0905Z
    PROB30 TEMPO 0820/0904 06008KT
           BECMG 0910/0912 27012KT=
TAF LDOS 081725Z 0818/0918 11005KT CAVOK
                 TX23/0914Z TN02/0905Z=
TAF AMD LDRI 081801Z 0818/0912 CNL=

SIGMET

AIRMET

Remark

Ukoliko se brzina i smjer vjetra ne mogu odrediti zbog privremenog kvara sustava/indikatora,
informacija o vjetru u METAR izvješću bit će prikazana kao "/////KT".

 

Disclaimer

 

In case of temporary system/sensor failure, wind speed and direction data will be represented as "/////KT" in METAR report.

 

If you cannot log in with your user account, please contact stjepko.jancijev@crocontrol.hr.
Specifically, the website deactivates user accounts that have not been used for more than 365 days, so they must be reactivated.
 

         

      Politika MET podataka      

 

Ukoliko se svojim korisničkim računom ne možete logirati na web stranicu, molim vas da se obratite na stjepko.jancijev@crocontrol.hr.

Naime, web stranica deaktivira korisničke račune koji nisu korišteni više od 365 dana te ih je potrebno ponovno aktivirati.